Regional Weather Roundup
Issued by NWS State College, PA

Home | Current Version | Previous Version | Text Only | Print | Product List | Glossary On
Versions: 1 2 3 4 5 6 7 8 9 10 11 12 13 14 15 16 17 18 19 20 21 22 23 24 25 26 27 28 29 30 31 32 33 34 35 36 37 38 39 40 41 42 43 44 45 46 47 48 49 50
000
ASUS41 KCTP 291303
RWRCTP

REGIONAL WEATHER ROUNDUP
NATIONAL WEATHER SERVICE STATE COLLEGE PA
900 AM EDT SUN MAR 29 2015

Note: "fair" indicates few or no clouds below 12,000 feet with no
significant weather and/or obstructions to visibility.

* = STATION THAT DOES NOT REPORT PRECIPITATION /E.G. RAIN...SNOW...ETC/
    THUNDER OR FOG.

PAZ002>004-007>009-013>016-020>023-029>032-291400-
WESTERN PENNSYLVANIA

CITY           SKY/WX    TMP DP  RH WIND       PRES   REMARKS
ERIE           SUNNY     26  15  63 S9        30.31S
MEADVILLE      SUNNY     20  13  74 S9        30.28R WCI   9
FRANKLIN*      SUNNY     19  10  68 SW8       30.31R WCI   9
NEW CASTLE     FAIR      23  14  68 CALM      30.35S
BEAVER COUNTY  NOT AVBL
BUTLER*        SUNNY     21  12  68 SW6       30.35R WCI  14
PITTSBURGH INT MOSUNNY   22  12  65 SW5       30.35R
PITTSBURGH     SUNNY     22   7  52 SW9       30.34S WCI  12
INDIANA*       SUNNY     19  12  73 SW7       30.38R WCI  10
LATROBE        NOT AVBL
WASHINGTON CO* SUNNY     21  12  68 CALM      30.37R
$$

PAZ004>006-010>012-017>019-024>028-033>037-041-042-045-046-049>053-291400-
CENTRAL PENNSYLVANIA

CITY           SKY/WX    TMP DP  RH WIND       PRES   REMARKS
BRADFORD       SUNNY     16   9  74 W5        30.24R WCI   9
DUBOIS         SUNNY     18  11  74 W8        30.28R WCI   8
CLEARFIELD     SUNNY     17  10  74 S7        30.31R WCI   8
JOHNSTOWN      SUNNY     18   9  68 W7        30.26R WCI   9
ALTOONA        SUNNY     21   9  59 NW13      30.31R WCI   9
STATE COLLEGE  SUNNY     21  10  63 CALM      30.32R
WILLIAMSPORT   SUNNY     24  11  57 W12       30.34R WCI  13
SELINSGROVE    SUNNY     26  10  50 NW10      30.34R
FT INDIANTOWN  SUNNY     26   7  43 NW8       30.32R
CAPITAL CITY   SUNNY     26   8  46 W8        30.36R
HARRISBURG     SUNNY     28  11  48 NW13      30.35R
YORK           SUNNY     27  11  51 NW10      30.34R
$$

PAZ038>040-043-044-047-048-054-055-060>062-067>071-291400-
EASTERN PENNSYLVANIA

CITY           SKY/WX    TMP DP  RH WIND       PRES   REMARKS
SCRANTON       SUNNY     24   9  52 N3        30.27R
MOUNT POCONO   SUNNY     21   8  57 N8G17     30.16R WCI  11
ALLENTOWN      MIX PCPN  27  11  51 N9        30.30R
QUAKERTOWN*    SUNNY     27  10  50 NW9       30.30R
READING        SUNNY     28   8  43 NW13      30.33R
LANCASTER      SUNNY     27  10  49 NW13      30.33R
COATESVILLE    SUNNY     27   9  46 NW14      30.30S
POTTSTOWN      SUNNY     27   8  44 NW10      30.32R
BLUE BELL      SUNNY     30  12  47 NW5       30.30R
DOYLESTOWN     SUNNY     27  10  49 N9        30.29R
WILLOW GROVE   NOT AVBL
NORTH PHILA    SUNNY     31   8  38 NW9       30.33R
PHILADELPHIA   SUNNY     30   7  37 N16       30.33R
$$


USA.gov is the U.S. government's official web portal to all federal, state and local government web resources and services.